Location: Krakow
(50.0830°N, 19.9170°E)
Time: 13:53:57
(UTC+02:00)

Tiros 1 - Pass Details

Date: 03 February 2023
Orbit: 627 x 662 km, 48.4° (Epoch: 01 April)

Event Time Altitude Azimuth Distance (km) Brightness Sun altitude
Exits shadow 03:29:13 17° 102° (ESE) 1,605 9.7 -35.6°
Drops below altitude 10° 03:30:22 10° 101° (E) 2,038 10.3 -35.5°
Sets 03:32:43 0° 99° (E) 2,954 11.4 -35.1°
